Regional Weather Roundup
Issued by NWS Charleston, SC

Current Version | Previous Version | Graphics & Text | Print | Product List | Glossary On
Versions: 1 2 3 4 5 6 7 8 9 10 11 12 13 14 15 16 17 18 19 20 21 22 23 24 25 26 27 28 29 30 31 32 33 34 35 36 37 38 39 40 41 42 43 44 45 46 47 48 49 50
000 ASUS42 KCHS 022327 RWRCHS REGIONAL WEATHER ROUNDUP NATIONAL WEATHER SERVICE CHARLESTON SC 700 PM EDT TUE JUN 02 2015 NOTE: "FAIR" INDICATES FEW OR NO CLOUDS BELOW 12,000 FEET WITH NO SIGNIFICANT WEATHER AND/OR OBSTRUCTIONS TO VISIBILITY. NOT ALL STATIONS ARE QUALITY CONTROLLED BY THE NATIONAL WEATHER SERVICE. USE DATA WITH CAUTION...ESPECIALLY DEWPOINT OBSERVATIONS. SCZ027-030-031-034>040-042>050-030000- ...SOUTHEAST SOUTH CAROLINA... CITY SKY/WX TMP DP RH WIND PRES REMARKS N CHARLESTON CLOUDY 76 66 71 S6G20 29.97R WATERFRONT PAR N/A 79 73 82 S7 29.93R MOUNT PLEASANT FAIR 81 72 74 S8 29.96S JOHNS ISLAND MOCLDY 81 72 74 S7 29.97R PINOPOLIS N/A 75 66 73 S6 29.87S MONCKS CORNER FAIR 72 66 83 SW7 29.94F SUMMERVILLE FAIR 70 70 100 CALM 29.97S BEAUFORT MCAS CLOUDY 79 72 79 VRB3 29.96R BEAUFORT ARPT MOCLDY 79 73 83 S3 29.96R HILTON HEAD IS PTSUNNY 77 72 83 CALM 29.98R THUNDER WALTERBORO LGT RAIN 72 68 88 CALM 29.96S ALLENDALE FAIR 72 66 83 S7G13 29.94R ...SOUTHERN MIDLANDS AND PEE DEE... CITY SKY/WX TMP DP RH WIND PRES REMARKS GEORGETOWN NOT AVBL KINGSTREE NOT AVBL ORANGEBURG TSTM 68 62 81 NE15G35 29.96R VSB 1/2 BARNWELL FAIR 79 66 65 SE16 29.94R AIKEN FAIR 82 59 44 W5 29.95R MANNING FAIR 72 64 78 S3 29.95R COLUMBIA PTSUNNY 80 65 59 SE10 29.90R SUMTER LGT RAIN 73 68 83 CALM 29.92R FLORENCE CLOUDY 75 69 81 SE5 29.95R MYRTLE BEACH PTSUNNY 79 70 73 S9 N/A N MYRTLE BEACH CLOUDY 79 70 74 S9 29.94F $$ GAZ063-065-086>088-099>101-113>116-118-119-134>141-150-030000- ...SOUTHEAST GEORGIA... CITY SKY/WX TMP DP RH WIND PRES REMARKS SAVANNAH ARPT CLOUDY 74 67 78 S3 29.95R HUNTER AAF CLOUDY 75 73 92 SW2 29.93R FORT STEWART CLOUDY 76 67 72 CALM 29.92S STATESBORO CLOUDY 74 71 88 E5 29.95R SYLVANIA CLOUDY 74 70 86 SE6 29.95S CLAXTON FAIR 72 70 94 CALM 29.94S ...CSRA...CENTRAL AND FAR SOUTHEAST GEORGIA... CITY SKY/WX TMP DP RH WIND PRES REMARKS THOMSON MOSUNNY 85 71 62 S3 29.96R AUGUSTA-BUSH PTSUNNY 76 64 66 S9 29.91R AUGUSTA-DANIEL PTSUNNY 84 64 50 S5 29.92S SWAINSBORO TSTM 73 72 94 NW9 29.94S VIDALIA CLOUDY 73 68 83 SW14 29.94S EASTMAN FAIR 82 71 69 SW3 29.95R HAZLEHURST HVY RAIN 73 73 99 E12 29.95R ALMA CLOUDY 74 64 71 NW3 29.95R WAYCROSS CLOUDY 77 70 77 SE5 29.94S JESUP FAIR 79 72 78 NW3 29.95S BAXLEY PTSUNNY 73 66 78 CALM 29.94F BRUNSWICK CLOUDY 72 70 94 SW3 29.95R SAINT SIMONS NOT AVBL $$ SCZ027-028-034-036>038-045-046-048>050-GAZ119-141-030000- ...LAKE AND SUPPLEMENTAL COASTAL OBSERVATIONS... STATION/POSITION TIME TEMP WIND PRES WAVE SWELL AIR SEA DIR/SP/G HT/PER HT/PER/DIR (UTC) (F) (DEG/KT/KT) (MB) (FT/S) (FT/S/D) UPR LAKE MARION NOT AVBL WINYAH BAY 2200 79 170/ 10 1013.0 LAKE MURRAY 2300 78 30/ 3/ 8 1012.2R ACE BASIN NERRS NOT AVBL FORT PULASKI 2300 79 81 170/ 4/ 9 1014.5R SAPELO ISLAND 2300 75 170/ 4 1014.0S $$ ANZ835-935-AMZ111-154-330-350-352-354-370-450-454-472-030000- ...C-MAN AND BUOY OBSERVATIONS... STATION/POSITION TIME TEMP WIND PRES WAVE SWELL AIR SEA DIR/SP/G HT/PER HT/PER/DIR (UTC) (F) (DEG/KT/KT) (MB) (FT/S) (FT/S/D) BUOY 41004 2250 80 81 180/ 8/ 10 1014.0F 2/ 8 2/ 8 BUOY 41008 2250 78 80 190/ 12/ 16 1013.6F 2/ 8 2/ 90/ 8 FOLLY BEACH CMAN 2300 79 190/ 8/ 9 1015.0R CAPERS NEARSHORE 2208 78 170/ 10/ 14 1014.4F FRIPP NEARSHORE 2200 79 190/ 14/ 16 1013.3 STATION/POSITION TIME TEMP WIND PRES WAVE SWELL AIR SEA DIR/SP/G HT/PER HT/PER/DIR (UTC) (F) (DEG/KT/KT) (MB) (FT/S) (FT/S/D) 5E ST. MARYS GA 2221 82 N/A 3/ 8 FRYING PAN BUOY 2250 79 79 130/ 4/ 4 1015.3F 2/ 8 2/100/ 8 BUOY 41025 2250 79 82 230/ 8/ 10 1015.6F 2/ 8 2/ 80/ 8 CAPE LOOKOUT NC 2300 78 180/ 7/ 8 1015.1F BUOY 41002 2250 78 79 180/ 6/ 8 1016.1R 3/ 8 3/100/ 8 BUOY 41010 2220 79 81 140/ 8/ 10 1015.0S ST AUGUSTINE FL 2300 74 77 270/ 2/ 3 1014.6F $$

USA.gov is the U.S. government's official web portal to all federal, state and local government web resources and services.